カタログに戻る

FENGYUN 1C DEB

運用中SSO
NORAD 31007·DEBRIS·🇨🇳 China

打ち上げ May 10, 1999 から Taiyuan Satellite Launch Center

Loading…

次のパス (今後24時間)

TLE

最新Source: Space-Track

元期: Sep 13, 2026, 22:25 UTC

1 31007U 99025BCZ 26256.93451932  .00005204  00000-0  98382-3 0  9997
2 31007  98.1019 247.9781 0058070 254.3361 105.1429 14.63730425 21069

AllMySatでFENGYUN 1C DEBをリアルタイム追跡

Download on the App Store